CORVUS BC2

Last updated on Fri Oct 24 2025 00:03:53 GMT+0000 (Coordinated Universal Time)

1 42846U 17042X 25296.42080858 .00006852 00000+0 49767-3 0 9993 2 42846 97.3830 102.6688 0013407 198.6167 161.4571 15.04098973451449
UTC large
Height (km)
Speed (km/s)
/
Latitude / Longitude
Inclination (degrees)
Orbital Period (minutes)
Azimuth
Elevation
Range (km)
Doppler Factor

Next 0 passes for location: London (51.5072 / 0.1276)

Sorry there are no passes over London.